User: anonymous   Login
Location: Adrasan
(36.3319°N, 30.4314°E)
Time: 01:25:41
(UTC+00:00)
Language:

Cosmos 2251 Rocket - Orbit

View from above orbital plane
View from above orbital plane
View from above satellite
View from above satellite

Ground track
Ground track

The orbit data is extracted from the following two-line orbital elements,

1 22676U 93036B   24108.59683319  .00000532  00000-0  19730-3 0  9996
2 22676  74.0405 295.0749 0017804  70.3977 289.9095 14.34547068612894
Epoch (UTC): 17 April 2024 14:19:26
Eccentricity: 0.0017804
inclination: 74.0405°
perigee height: 764 km
apogee height: 789 km
right ascension of ascending node: 295.0749°
argument of perigee: 70.3977°
revolutions per day: 14.34547068
mean anomaly at epoch: 289.9095°
orbit number at epoch: 61289

The dashed part of the orbit path shows where the satellite is in the earth's shadow,  

DLR